Погода в Новых Викри

Россия / Республика Дагестан     42°17′52″N   47°59′42″E
темп.,
°C
ветер,
м/с
пор.,
м/с
влажн.,
%
обл.,
%
осадки,
мм/ч
давл.,
гПа
погр.,
м
14 мая, пт
пт1400:00+14ююв11764 0.1 101511
03:00+13всв00780 0.1 101511
06:00+17ююв12623 0.0 101550
09:00+24вюв35430 0.0 1014454
12:00+28вюв610330 0.0 1014937
15:00+28вюв6103258 0.0 1013945
18:00+23юв345283 0.0 101373
21:00+18ююз1158100 0.0 101426
15 мая, сб
сб1500:00+17ююз01573 0.0 101415
03:00+17ююз12520 0.0 101313
06:00+20юз11510 0.0 101423
09:00+25в35350 0.0 1014561
12:00+28вюв68270 0.0 1013955
15:00+28вюв69210 0.0 1013923
18:00+24вюв34320 0.0 101392
21:00+18з11435 0.0 101413
16 мая, вс
вс1600:00+16ююз115325 0.0 101312
03:00+17ююз125240 0.0 101212
06:00+20ююз115116 0.0 101233
09:00+27вюв59260 0.0 1011908
12:00+29вюв79230 0.0 10101295
15:00+28вюв712280 0.0 1008766
18:00+23вюв36420 0.0 1009195
21:00+17юв11560 0.0 100931
17 мая, пн
пн1700:00+17ююз11550 0.0 100812
03:00+16ю11519 0.0 100726
06:00+19вюв014618 0.0 100752
09:00+25в32325 0.0 1007476
12:00+27всв43306 0.0 1006689
15:00+25всв323611 0.0 1005496
18:00+21св225253 0.0 1005132
21:00+17сз116767 0.0 100628
18 мая, вт
вт1800:00+17ссз23575 0.0 100751
03:00+17ссз235881 0.0 100775
06:00+19сз1353100 0.0 1009112
09:00+24с585594 0.0 1009677
12:00+25ссв6953100 0.0 1010932
15:00+22с3769100 1.1 1011560
18:00+21з2379100 1.7 101183
21:00+19зюз2280100 1.9 101221